カタログに戻る

STARLINK-1212

運用中通信VLEO
NORAD 45223·PAYLOAD·🇺🇸 United States

打ち上げ Feb 17, 2020 から Cape Canaveral Space Force Station

Loading…

次のパス (今後24時間)

TLE

最新Source: CelesTrak SupGP

元期: Sep 14, 2026, 21:12 UTC

1 45223C 20012AX  26257.88381944  .00074662  00000+0  33537-3 0  2573
2 45223  53.0346 136.9493 0004596 118.4415 305.6986 15.83348365    16

AllMySatでSTARLINK-1212をリアルタイム追跡

Download on the App Store